GAD MUNICIPALIDAD DE AMBATO,,,
Reporte Solmaforo desde 01/04/2021 hasta 30/04/2021,,,
C�digo,Fecha,IUV,IUV Completo
1947979,01/04/2021 05:00:51,0,0
1947982,01/04/2021 05:01:51,0,0
1947985,01/04/2021 05:02:51,0,0
1947988,01/04/2021 05:03:51,0,0
1947991,01/04/2021 05:04:51,0,0
1947994,01/04/2021 05:05:51,0,0
1947999,01/04/2021 05:07:51,0,0
1948002,01/04/2021 05:08:51,0,0
1948005,01/04/2021 05:09:51,0,0
1948008,01/04/2021 05:10:51,0,0
1948011,01/04/2021 05:11:51,0,0
1948014,01/04/2021 05:12:51,0,0
1948019,01/04/2021 05:14:51,0,0
1948022,01/04/2021 05:15:51,0,0
1948025,01/04/2021 05:16:51,0,0
1948028,01/04/2021 05:17:51,0,0
1948031,01/04/2021 05:18:51,0,0
1948034,01/04/2021 05:19:51,0,0
1948039,01/04/2021 05:21:51,0,0
1948042,01/04/2021 05:22:51,0,0
1948045,01/04/2021 05:23:51,0,0
1948048,01/04/2021 05:24:51,0,0
1948051,01/04/2021 05:25:51,0,0
1948054,01/04/2021 05:26:51,0,0
1948059,01/04/2021 05:28:51,0,0
1948062,01/04/2021 05:29:51,0,0
1948065,01/04/2021 05:30:51,0,0
1948068,01/04/2021 05:31:51,0,0
1948071,01/04/2021 05:32:51,0,0
1948074,01/04/2021 05:33:51,0,0
1948079,01/04/2021 05:35:51,0,0
1948082,01/04/2021 05:36:51,0,0
1948085,01/04/2021 05:37:51,0,0
1948088,01/04/2021 05:38:51,0,0
1948091,01/04/2021 05:39:51,0,0
1948094,01/04/2021 05:40:51,0,0
1948099,01/04/2021 05:42:51,0,0
1948102,01/04/2021 05:43:51,0,0
1948105,01/04/2021 05:44:51,0,0
1948108,01/04/2021 05:45:51,0,0
1948111,01/04/2021 05:46:51,0,0
1948114,01/04/2021 05:47:51,0,0
1948119,01/04/2021 05:49:51,0,0
1948122,01/04/2021 05:50:51,0,0
1948125,01/04/2021 05:51:51,0,0
1948128,01/04/2021 05:52:51,0,0
1948131,01/04/2021 05:53:51,0,0
1948134,01/04/2021 05:54:51,0,0
1948139,01/04/2021 05:56:51,0,0
1948142,01/04/2021 05:57:51,0,0.0004
1948145,01/04/2021 05:58:51,0,0.0004
1948148,01/04/2021 05:59:51,0,0.0008
1948151,01/04/2021 06:00:51,0,0.0008
1948154,01/04/2021 06:01:51,0,0.0012
1948159,01/04/2021 06:03:51,0,0.0024
1948162,01/04/2021 06:04:51,0,0.0028
1948165,01/04/2021 06:05:51,0,0.004
1948168,01/04/2021 06:06:51,0,0.0052
1948171,01/04/2021 06:07:51,0,0.0064
1948174,01/04/2021 06:08:51,0,0.0076
1948179,01/04/2021 06:10:51,0,0.0112
1948182,01/04/2021 06:11:52,0,0.0132
1948185,01/04/2021 06:12:51,0,0.0156
1948188,01/04/2021 06:13:51,0,0.0192
1948191,01/04/2021 06:14:51,0,0.024
1948194,01/04/2021 06:15:51,0,0.0276
1948199,01/04/2021 06:17:51,0,0.0344
1948202,01/04/2021 06:18:51,0,0.0392
1948205,01/04/2021 06:19:51,0,0.0444
1948208,01/04/2021 06:20:52,0,0.0484
1948211,01/04/2021 06:21:51,0,0.0516
1948214,01/04/2021 06:22:51,0,0.0552
1948219,01/04/2021 06:24:51,0,0.0668
1948222,01/04/2021 06:25:51,0,0.0752
1948225,01/04/2021 06:26:51,0,0.0836
1948228,01/04/2021 06:27:51,0,0.0892
1948231,01/04/2021 06:28:51,0,0.0952
1948234,01/04/2021 06:29:52,0,0.0988
1948239,01/04/2021 06:31:51,0,0.1112
1948242,01/04/2021 06:32:51,0,0.1148
1948245,01/04/2021 06:33:51,0,0.1244
1948248,01/04/2021 06:34:51,0,0.1336
1948251,01/04/2021 06:35:51,0,0.1364
1948254,01/04/2021 06:36:51,0,0.1344
1948259,01/04/2021 06:38:51,0,0.1308
1948262,01/04/2021 06:39:51,0,0.1348
1948265,01/04/2021 06:40:51,0,0.1404
1948268,01/04/2021 06:41:51,0,0.148
1948271,01/04/2021 06:42:51,0,0.1576
1948274,01/04/2021 06:43:51,0,0.166
1948279,01/04/2021 06:45:51,0,0.1788
1948282,01/04/2021 06:46:51,0,0.1844
1948285,01/04/2021 06:47:51,0,0.1876
1948288,01/04/2021 06:48:51,0,0.1916
1948291,01/04/2021 06:49:51,0,0.1924
1948294,01/04/2021 06:50:51,0,0.1932
1948299,01/04/2021 06:52:51,0,0.1952
1948302,01/04/2021 06:53:51,0,0.1992
1948305,01/04/2021 06:54:51,0,0.2064
1948308,01/04/2021 06:55:51,0,0.216
1948311,01/04/2021 06:56:52,0,0.2252
1948314,01/04/2021 06:57:51,0,0.2348
1948319,01/04/2021 06:59:51,0,0.2672
1948322,01/04/2021 07:00:51,0,0.2884
1948325,01/04/2021 07:01:51,0,0.3088
1948328,01/04/2021 07:02:51,0,0.3324
1948331,01/04/2021 07:03:52,0,0.3612
1948334,01/04/2021 07:04:51,0,0.4028
1948339,01/04/2021 07:06:51,0,0.492
1948342,01/04/2021 07:07:51,1,0.5316
1948345,01/04/2021 07:08:51,1,0.5696
1948348,01/04/2021 07:09:51,1,0.6028
1948351,01/04/2021 07:10:51,1,0.6272
1948354,01/04/2021 07:11:51,1,0.6624
1948359,01/04/2021 07:13:51,1,0.7216
1948362,01/04/2021 07:14:51,1,0.704
1948365,01/04/2021 07:15:51,1,0.6696
1948368,01/04/2021 07:16:51,1,0.6744
1948371,01/04/2021 07:17:51,1,0.6928
1948374,01/04/2021 07:18:51,1,0.6684
1948379,01/04/2021 07:20:51,1,0.6772
1948382,01/04/2021 07:21:51,1,0.752
1948385,01/04/2021 07:22:51,1,0.8024
1948388,01/04/2021 07:23:51,1,0.8432
1948391,01/04/2021 07:24:51,1,0.8836
1948394,01/04/2021 07:25:51,1,0.9204
1948399,01/04/2021 07:27:51,1,1.0316
1948402,01/04/2021 07:28:52,1,1.194
1948405,01/04/2021 07:29:51,1,1.1492
1948408,01/04/2021 07:30:51,1,1.1108
1948411,01/04/2021 07:31:51,1,1.1116
1948414,01/04/2021 07:32:51,1,1.1816
1948419,01/04/2021 07:34:51,1,1.252
1948422,01/04/2021 07:35:52,1,1.2652
1948425,01/04/2021 07:36:51,1,1.2936
1948428,01/04/2021 07:37:51,1,1.34
1948431,01/04/2021 07:38:51,1,1.3872
1948434,01/04/2021 07:39:52,1,1.4292
1948439,01/04/2021 07:41:51,2,1.58
1948442,01/04/2021 07:42:51,2,1.5368
1948445,01/04/2021 07:43:51,1,1.45
1948448,01/04/2021 07:44:51,2,1.5536
1948451,01/04/2021 07:45:51,2,1.6536
1948454,01/04/2021 07:46:51,2,1.656
1948459,01/04/2021 07:48:52,2,2.0096
1948462,01/04/2021 07:49:51,2,1.8984
1948465,01/04/2021 07:50:51,2,1.7088
1948468,01/04/2021 07:51:52,2,1.672
1948471,01/04/2021 07:52:51,2,1.6844
1948474,01/04/2021 07:53:51,2,1.6892
1948479,01/04/2021 07:55:52,2,1.71
1948482,01/04/2021 07:56:51,2,1.89
1948485,01/04/2021 07:57:52,2,2.0492
1948488,01/04/2021 07:58:51,2,1.6268
1948491,01/04/2021 07:59:51,2,1.5532
1948494,01/04/2021 08:00:51,2,1.5544
1948499,01/04/2021 08:02:52,1,1.3752
1948502,01/04/2021 08:03:51,1,1.3336
1948505,01/04/2021 08:04:51,1,1.2604
1948508,01/04/2021 08:05:51,1,1.2016
1948511,01/04/2021 08:06:52,1,1.206
1948514,01/04/2021 08:07:51,1,1.2292
1948519,01/04/2021 08:09:51,2,1.5776
1948522,01/04/2021 08:10:51,2,2.1184
1948525,01/04/2021 08:11:52,2,1.9252
1948528,01/04/2021 08:12:51,2,1.8928
1948531,01/04/2021 08:13:52,2,1.9328
1948534,01/04/2021 08:14:51,2,1.88
1948539,01/04/2021 08:16:51,2,1.7184
1948542,01/04/2021 08:17:51,2,1.7208
1948545,01/04/2021 08:18:52,2,1.8196
1948548,01/04/2021 08:19:51,2,1.9184
1948551,01/04/2021 08:20:52,2,1.9784
1948554,01/04/2021 08:21:51,2,2.0036
1948559,01/04/2021 08:23:51,2,1.9956
1948562,01/04/2021 08:24:51,2,2.102
1948565,01/04/2021 08:25:51,2,2.19
1948568,01/04/2021 08:26:51,2,2.2964
1948571,01/04/2021 08:27:52,2,2.466
1948574,01/04/2021 08:28:51,2,2.1648
1948579,01/04/2021 08:30:51,2,2.1048
1948582,01/04/2021 08:31:52,2,2.1696
1948585,01/04/2021 08:32:51,2,2.2928
1948588,01/04/2021 08:33:51,3,2.5128
1948591,01/04/2021 08:34:51,2,2.382
1948594,01/04/2021 08:35:51,2,2.3628
1948599,01/04/2021 08:37:51,3,2.5044
1948602,01/04/2021 08:38:51,3,2.5204
1948605,01/04/2021 08:39:51,3,2.556
1948608,01/04/2021 08:40:52,3,2.5452
1948611,01/04/2021 08:41:52,2,2.4656
1948614,01/04/2021 08:42:51,2,2.2116
1948619,01/04/2021 08:44:51,2,1.7572
1948622,01/04/2021 08:45:52,2,1.6772
1948625,01/04/2021 08:46:51,2,1.6856
1948628,01/04/2021 08:47:52,2,1.852
1948631,01/04/2021 08:48:51,2,2.2028
1948634,01/04/2021 08:49:52,2,2.3004
1948639,01/04/2021 08:51:51,2,2.1656
1948642,01/04/2021 08:52:52,2,2.0388
1948645,01/04/2021 08:53:51,2,1.9248
1948648,01/04/2021 08:54:52,2,1.9148
1948651,01/04/2021 08:55:51,2,1.9504
1948654,01/04/2021 08:56:52,2,1.8844
1948659,01/04/2021 08:58:52,2,2.0596
1948662,01/04/2021 08:59:52,2,2.3704
1948665,01/04/2021 09:00:51,3,2.6232
1948668,01/04/2021 09:01:51,3,3.144
1948671,01/04/2021 09:02:51,3,3.2768
1948674,01/04/2021 09:03:51,3,3.1444
1948679,01/04/2021 09:05:52,3,2.9468
1948682,01/04/2021 09:06:51,3,3.036
1948685,01/04/2021 09:07:52,3,3.3044
1948688,01/04/2021 09:08:51,4,3.6436
1948691,01/04/2021 09:09:51,3,3.2416
1948694,01/04/2021 09:10:52,5,4.5456
1948699,01/04/2021 09:12:52,5,5.0292
1948702,01/04/2021 09:13:51,6,6.2352
1948705,01/04/2021 09:14:52,6,5.8024
1948708,01/04/2021 09:15:52,5,4.6356
1948711,01/04/2021 09:16:52,7,6.7796
1948714,01/04/2021 09:17:51,6,5.5484
1948719,01/04/2021 09:19:52,7,6.5156
1948722,01/04/2021 09:20:51,7,6.556
1948725,01/04/2021 09:21:52,6,5.5092
1948728,01/04/2021 09:22:52,3,3.3052
1948731,01/04/2021 09:23:52,4,4.3836
1948734,01/04/2021 09:24:51,4,3.762
1948739,01/04/2021 09:26:51,6,5.7292
1948742,01/04/2021 09:27:51,3,3.4928
1948745,01/04/2021 09:28:52,5,4.9228
1948748,01/04/2021 09:29:51,5,4.5028
1948751,01/04/2021 09:30:52,6,5.5964
1948754,01/04/2021 09:31:52,4,4.2232
1948759,01/04/2021 09:33:52,6,6.4832
1948762,01/04/2021 09:34:52,5,5.1168
1948765,01/04/2021 09:35:52,5,4.622
1948768,01/04/2021 09:36:51,6,5.7376
1948771,01/04/2021 09:37:52,6,6.4248
1948774,01/04/2021 09:38:51,6,6.3092
1948779,01/04/2021 09:40:51,6,5.96
1948782,01/04/2021 09:41:52,7,6.5652
1948785,01/04/2021 09:42:51,6,5.86
1948788,01/04/2021 09:43:51,2,2.4208
1948791,01/04/2021 09:44:52,2,2.3548
1948794,01/04/2021 09:45:51,6,6.3184
1948799,01/04/2021 09:47:51,6,6.238
1948802,01/04/2021 09:48:52,6,5.9184
1948805,01/04/2021 09:49:51,7,6.5308
1948808,01/04/2021 09:50:52,7,6.5956
1948811,01/04/2021 09:51:51,6,6.4788
1948814,01/04/2021 09:52:51,6,6.398
1948819,01/04/2021 09:54:51,6,6.3736
1948822,01/04/2021 09:55:52,6,6.3332
1948825,01/04/2021 09:56:51,6,6.2808
1948828,01/04/2021 09:57:52,6,6.2804
1948831,01/04/2021 09:58:52,7,6.5828
1948834,01/04/2021 09:59:52,4,4.4016
1948839,01/04/2021 10:01:51,6,5.6004
1948842,01/04/2021 10:02:51,7,7.0024
1948845,01/04/2021 10:03:51,7,6.9208
1948848,01/04/2021 10:04:52,7,6.7588
1948851,01/04/2021 10:05:51,6,6.446
1948854,01/04/2021 10:06:52,7,6.5044
1948859,01/04/2021 10:08:52,6,5.6828
1948862,01/04/2021 10:09:51,6,6.1896
1948865,01/04/2021 10:10:51,7,6.6416
1948868,01/04/2021 10:11:52,7,6.7852
1948871,01/04/2021 10:12:51,7,6.684
1948874,01/04/2021 10:13:52,7,6.5468
1948879,01/04/2021 10:15:52,6,5.5324
1948882,01/04/2021 10:16:51,3,2.6152
1948885,01/04/2021 10:17:52,2,2.1124
1948888,01/04/2021 10:18:52,2,2.298
1948891,01/04/2021 10:19:51,4,3.6728
1948894,01/04/2021 10:20:52,4,4.044
1948899,01/04/2021 10:22:52,2,2.4632
1948902,01/04/2021 10:23:51,2,1.5776
1948905,01/04/2021 10:24:52,2,1.7852
1948908,01/04/2021 10:25:52,7,7.3744
1948911,01/04/2021 10:26:52,7,7.1308
1948914,01/04/2021 10:27:52,7,7.1332
1948919,01/04/2021 10:29:52,6,6.4772
1948922,01/04/2021 10:30:52,7,6.8012
1948925,01/04/2021 10:31:52,4,4.216
1948928,01/04/2021 10:32:52,6,6.1164
1948931,01/04/2021 10:33:52,8,8.1216
1948934,01/04/2021 10:34:52,8,7.8056
1948939,01/04/2021 10:36:52,8,7.9356
1948942,01/04/2021 10:37:51,7,7.4924
1948945,01/04/2021 10:38:52,9,8.5956
1948948,01/04/2021 10:39:51,9,8.6628
1948951,01/04/2021 10:40:52,6,6.0264
1948954,01/04/2021 10:41:52,9,8.6188
1948959,01/04/2021 10:43:52,7,7.102
1948962,01/04/2021 10:44:52,7,7.1736
1948965,01/04/2021 10:45:52,7,6.9376
1948968,01/04/2021 10:46:51,4,3.7148
1948971,01/04/2021 10:47:52,6,6.4092
1948974,01/04/2021 10:48:52,8,8.3644
1948979,01/04/2021 10:50:52,8,7.5156
1948982,01/04/2021 10:51:52,7,7.3064
1948985,01/04/2021 10:52:52,7,6.6188
1948988,01/04/2021 10:53:52,5,4.6044
1948991,01/04/2021 10:54:52,3,3.0528
1948994,01/04/2021 10:55:52,3,3.2068
1948999,01/04/2021 10:57:51,5,5.2612
1949002,01/04/2021 10:58:52,5,4.8216
1949005,01/04/2021 10:59:52,4,4.1724
1949008,01/04/2021 11:00:52,5,4.8316
1949011,01/04/2021 11:01:52,7,6.57
1949014,01/04/2021 11:02:52,6,5.8204
1949019,01/04/2021 11:04:52,5,5.0972
1949022,01/04/2021 11:05:52,5,4.6928
1949025,01/04/2021 11:06:51,6,5.806
1949028,01/04/2021 11:07:52,5,4.7916
1949031,01/04/2021 11:08:51,6,6.1472
1949034,01/04/2021 11:09:52,4,4.3448
1949039,01/04/2021 11:11:52,4,4.3112
1949042,01/04/2021 11:12:52,5,4.6856
1949045,01/04/2021 11:13:52,4,4.0356
1949048,01/04/2021 11:14:52,4,4.0656
1949051,01/04/2021 11:15:51,5,4.7516
1949054,01/04/2021 11:16:52,5,4.5972
1949059,01/04/2021 11:18:52,4,4.2092
1949062,01/04/2021 11:19:52,4,3.8936
1949065,01/04/2021 11:20:52,4,3.8724
1949068,01/04/2021 11:21:52,4,4.1732
1949071,01/04/2021 11:22:52,4,4.0436
1949074,01/04/2021 11:23:52,4,4.0176
1949079,01/04/2021 11:25:52,4,3.942
1949082,01/04/2021 11:26:52,4,3.8172
1949085,01/04/2021 11:27:52,4,3.824
1949088,01/04/2021 11:28:52,4,3.8176
1949091,01/04/2021 11:29:52,4,3.7668
1949094,01/04/2021 11:30:52,4,3.7436
1949099,01/04/2021 11:32:52,4,3.7308
1949102,01/04/2021 11:33:52,4,3.6996
1949105,01/04/2021 11:34:52,4,3.6328
1949108,01/04/2021 11:35:52,4,3.5676
1949111,01/04/2021 11:36:52,4,3.5148
1949114,01/04/2021 11:37:52,3,3.4892
1949119,01/04/2021 11:39:52,3,3.4948
1949122,01/04/2021 11:40:52,4,3.5392
1949125,01/04/2021 11:41:52,4,3.5796
1949128,01/04/2021 11:42:52,4,3.6012
1949131,01/04/2021 11:43:52,4,3.5744
1949134,01/04/2021 11:44:52,4,3.6228
1949139,01/04/2021 11:46:52,3,3.4748
1949142,01/04/2021 11:47:52,3,3.41
1949145,01/04/2021 11:48:52,3,3.3568
1949148,01/04/2021 11:49:52,3,3.308
1949151,01/04/2021 11:50:52,3,3.2412
1949154,01/04/2021 11:51:52,3,3.1328
1949159,01/04/2021 11:53:52,3,3.1896
1949162,01/04/2021 11:54:52,3,3.3296
1949165,01/04/2021 11:55:52,3,3.3916
1949168,01/04/2021 11:56:52,3,3.4548
1949171,01/04/2021 11:57:52,3,3.4192
1949174,01/04/2021 11:58:51,3,3.3596
1949179,01/04/2021 12:00:52,3,3.21
1949182,01/04/2021 12:01:52,3,3.1324
1949185,01/04/2021 12:02:52,3,3.044
1949188,01/04/2021 12:03:52,3,2.9652
1949191,01/04/2021 12:04:52,3,2.9088
1949194,01/04/2021 12:05:52,3,2.8576
1949199,01/04/2021 12:07:52,3,2.802
1949202,01/04/2021 12:08:52,3,2.8064
1949205,01/04/2021 12:09:52,3,2.812
1949208,01/04/2021 12:10:52,3,2.7888
1949211,01/04/2021 12:11:52,3,2.7408
1949214,01/04/2021 12:12:52,3,2.6828
1949219,01/04/2021 12:14:52,3,2.5648
1949222,01/04/2021 12:15:52,3,2.5184
1949225,01/04/2021 12:16:52,2,2.4916
1949228,01/04/2021 12:17:52,2,2.484
1949231,01/04/2021 12:18:52,2,2.4948
1949234,01/04/2021 12:19:52,3,2.5264
1949239,01/04/2021 12:21:52,3,2.672
1949242,01/04/2021 12:22:52,3,2.7776
1949245,01/04/2021 12:23:52,3,2.8868
1949248,01/04/2021 12:24:52,3,2.9804
1949251,01/04/2021 12:25:52,3,3.056
1949254,01/04/2021 12:26:52,3,3.1276
1949259,01/04/2021 12:28:52,3,3.3536
1949262,01/04/2021 12:29:52,3,3.478
1949265,01/04/2021 12:30:52,4,3.6064
1949268,01/04/2021 12:31:52,4,3.7648
1949271,01/04/2021 12:32:52,5,4.8784
1949274,01/04/2021 12:33:52,6,5.798
1949279,01/04/2021 12:35:52,10,10.148
1949282,01/04/2021 12:36:52,5,5.2492
1949285,01/04/2021 12:37:52,4,4.1988
1949288,01/04/2021 12:38:52,4,4.1828
1949291,01/04/2021 12:39:52,4,4.1156
1949294,01/04/2021 12:40:52,4,3.8684
1949299,01/04/2021 12:42:52,4,3.748
1949302,01/04/2021 12:43:52,4,3.672
1949305,01/04/2021 12:44:52,4,3.6216
1949308,01/04/2021 12:45:52,4,3.6
1949311,01/04/2021 12:46:52,4,3.5784
1949314,01/04/2021 12:47:52,3,3.4892
1949319,01/04/2021 12:49:52,3,3.2232
1949322,01/04/2021 12:50:52,3,3.118
1949325,01/04/2021 12:51:52,3,3.0432
1949328,01/04/2021 12:52:52,3,3.0092
1949331,01/04/2021 12:53:52,3,3.0184
1949334,01/04/2021 12:54:52,3,3.062
1949339,01/04/2021 12:56:52,3,3.1876
1949342,01/04/2021 12:57:52,3,3.2108
1949345,01/04/2021 12:58:52,3,3.2136
1949348,01/04/2021 12:59:52,3,3.1936
1949351,01/04/2021 13:00:52,3,3.1352
1949354,01/04/2021 13:01:52,3,3.09
1949359,01/04/2021 13:03:52,3,3.048
1949362,01/04/2021 13:04:52,3,3.054
1949365,01/04/2021 13:05:52,3,3.0984
1949368,01/04/2021 13:06:52,3,3.1328
1949371,01/04/2021 13:07:52,3,3.142
1949374,01/04/2021 13:08:52,3,3.1208
1949379,01/04/2021 13:10:52,3,3.038
1949382,01/04/2021 13:11:52,3,3.0156
1949385,01/04/2021 13:12:52,3,3.0076
1949388,01/04/2021 13:13:52,3,3.0112
1949391,01/04/2021 13:14:52,3,3.016
1949394,01/04/2021 13:15:52,3,3.0072
1949399,01/04/2021 13:17:52,3,2.9208
1949402,01/04/2021 13:18:52,3,2.8684
1949405,01/04/2021 13:19:52,3,2.8472
1949408,01/04/2021 13:20:52,3,2.8448
1949411,01/04/2021 13:21:52,3,2.8356
1949414,01/04/2021 13:22:52,3,2.8248
1949419,01/04/2021 13:24:52,3,2.8104
1949422,01/04/2021 13:25:52,3,2.8192
1949425,01/04/2021 13:26:52,3,2.802
1949428,01/04/2021 13:27:52,3,2.7612
1949431,01/04/2021 13:28:52,3,2.7028
1949434,01/04/2021 13:29:52,3,2.6504
1949439,01/04/2021 13:31:52,3,2.5812
1949442,01/04/2021 13:32:52,3,2.5892
1949445,01/04/2021 13:33:52,3,2.6304
1949448,01/04/2021 13:34:52,3,2.6924
1949451,01/04/2021 13:35:52,3,2.7656
1949454,01/04/2021 13:36:52,3,2.8056
1949459,01/04/2021 13:38:52,3,2.7928
1949462,01/04/2021 13:39:52,3,2.7448
1949465,01/04/2021 13:40:52,3,2.672
1949468,01/04/2021 13:41:52,3,2.6168
1949471,01/04/2021 13:42:52,3,2.5912
1949474,01/04/2021 13:43:52,3,2.6084
1949479,01/04/2021 13:45:52,3,2.8212
1949482,01/04/2021 13:46:52,6,5.6844
1949485,01/04/2021 13:47:52,7,7.1392
1949488,01/04/2021 13:48:52,7,7.4468
1949491,01/04/2021 13:49:52,5,5.0576
1949494,01/04/2021 13:50:52,6,6.0672
1949499,01/04/2021 13:52:52,7,7.2372
1949502,01/04/2021 13:53:52,7,7.0204
1949505,01/04/2021 13:54:52,7,7.012
1949508,01/04/2021 13:55:52,7,7.2044
1949511,01/04/2021 13:56:52,8,7.6804
1949514,01/04/2021 13:57:52,8,7.7088
1949519,01/04/2021 13:59:52,8,7.5972
1949522,01/04/2021 14:00:52,8,7.9808
1949525,01/04/2021 14:01:52,8,8.146
1949528,01/04/2021 14:02:52,7,7.0872
1949531,01/04/2021 14:03:52,8,7.7828
1949534,01/04/2021 14:04:52,8,7.84
1949539,01/04/2021 14:06:52,8,7.7748
1949542,01/04/2021 14:07:52,8,7.7272
1949545,01/04/2021 14:08:52,8,7.8796
1949548,01/04/2021 14:09:52,8,8.06
1949551,01/04/2021 14:10:52,7,6.7
1949554,01/04/2021 14:11:52,4,4.3224
1949559,01/04/2021 14:13:52,3,3.2476
1949562,01/04/2021 14:14:52,4,4.4544
1949565,01/04/2021 14:15:52,6,6.246
1949568,01/04/2021 14:16:52,6,5.7824
1949571,01/04/2021 14:17:52,6,6.3776
1949574,01/04/2021 14:18:52,7,7.3136
1949579,01/04/2021 14:20:52,7,7.21
1949582,01/04/2021 14:21:52,7,7.3484
1949585,01/04/2021 14:22:52,8,7.502
1949588,01/04/2021 14:23:52,7,7.4284
1949591,01/04/2021 14:24:52,7,7.0212
1949594,01/04/2021 14:25:52,7,6.8204
1949599,01/04/2021 14:27:52,7,7
1949602,01/04/2021 14:28:52,7,6.8296
1949605,01/04/2021 14:29:52,7,6.6524
1949608,01/04/2021 14:30:52,7,6.712
1949611,01/04/2021 14:31:52,7,7.0956
1949614,01/04/2021 14:32:52,7,6.894
1949619,01/04/2021 14:34:52,6,6.1036
1949622,01/04/2021 14:35:52,4,3.9296
1949625,01/04/2021 14:36:52,4,3.8296
1949628,01/04/2021 14:37:52,4,4.3916
1949631,01/04/2021 14:38:52,4,4.1232
1949634,01/04/2021 14:39:52,4,4.2924
1949639,01/04/2021 14:41:52,6,6.1852
1949642,01/04/2021 14:42:52,7,6.6516
1949645,01/04/2021 14:43:52,8,7.688
1949648,01/04/2021 14:44:52,6,6.4404
1949651,01/04/2021 14:45:52,7,6.5148
1949654,01/04/2021 14:46:52,7,6.7044
1949659,01/04/2021 14:48:52,5,4.8348
1949662,01/04/2021 14:49:52,4,4.116
1949665,01/04/2021 14:50:52,6,5.7408
1949668,01/04/2021 14:51:52,5,4.6844
1949671,01/04/2021 14:52:52,3,3.286
1949674,01/04/2021 14:53:52,3,2.846
1949679,01/04/2021 14:55:52,2,2.3816
1949682,01/04/2021 14:56:52,2,2.3032
1949685,01/04/2021 14:57:52,3,2.5824
1949688,01/04/2021 14:58:52,6,6.358
1949691,01/04/2021 14:59:52,7,6.7632
1949694,01/04/2021 15:00:52,6,6.086
1949699,01/04/2021 15:02:52,4,3.7996
1949702,01/04/2021 15:03:52,4,4.072
1949705,01/04/2021 15:04:52,5,5.0116
1949708,01/04/2021 15:05:52,4,4.332
1949711,01/04/2021 15:06:52,5,5.0796
1949714,01/04/2021 15:07:52,5,5.112
1949719,01/04/2021 15:09:52,5,5.0636
1949722,01/04/2021 15:10:52,5,4.88
1949725,01/04/2021 15:11:52,5,4.9108
1949728,01/04/2021 15:12:52,5,5.006
1949731,01/04/2021 15:13:52,5,5.1136
1949734,01/04/2021 15:14:52,5,4.9048
1949739,01/04/2021 15:16:52,4,4.3356
1949742,01/04/2021 15:17:52,5,4.5704
1949745,01/04/2021 15:18:52,5,4.7756
1949748,01/04/2021 15:19:52,5,4.6936
1949751,01/04/2021 15:20:52,4,4.462
1949754,01/04/2021 15:21:52,4,4.3508
1949759,01/04/2021 15:23:52,5,4.5984
1949762,01/04/2021 15:24:52,5,4.5788
1949765,01/04/2021 15:25:52,4,4.3328
1949768,01/04/2021 15:26:52,4,4.0976
1949771,01/04/2021 15:27:52,4,4.1668
1949774,01/04/2021 15:28:52,4,4.3404
1949779,01/04/2021 15:30:52,4,4.1644
1949782,01/04/2021 15:31:52,4,4.1172
1949785,01/04/2021 15:32:52,4,4.1792
1949788,01/04/2021 15:33:52,4,4.1772
1949791,01/04/2021 15:34:52,4,4.1656
1949794,01/04/2021 15:35:52,4,4.176
1949799,01/04/2021 15:37:52,4,4.1624
1949802,01/04/2021 15:38:52,4,4.1028
1949805,01/04/2021 15:39:52,4,4.046
1949808,01/04/2021 15:40:52,4,3.972
1949811,01/04/2021 15:41:52,4,3.9472
1949814,01/04/2021 15:42:52,4,3.8924
1949819,01/04/2021 15:44:52,4,3.7768
1949822,01/04/2021 15:45:52,4,3.7224
1949825,01/04/2021 15:46:52,4,3.6224
1949828,01/04/2021 15:47:52,4,3.7336
1949831,01/04/2021 15:48:52,4,3.8036
1949834,01/04/2021 15:49:52,4,3.6948
1949839,01/04/2021 15:51:52,4,3.5468
1949842,01/04/2021 15:52:52,3,3.4696
1949845,01/04/2021 15:53:53,3,3.4548
1949848,01/04/2021 15:54:52,3,3.4444
1949851,01/04/2021 15:55:52,3,3.4036
1949854,01/04/2021 15:56:52,3,3.3644
1949859,01/04/2021 15:58:52,3,3.2768
1949862,01/04/2021 15:59:52,3,3.206
1949865,01/04/2021 16:00:52,3,3.1632
1949868,01/04/2021 16:01:52,3,3.1284
1949871,01/04/2021 16:02:53,3,3.1044
1949874,01/04/2021 16:03:52,3,3.0952
1949879,01/04/2021 16:05:52,3,3.128
1949882,01/04/2021 16:06:52,3,3.0492
1949885,01/04/2021 16:07:52,3,2.97
1949888,01/04/2021 16:08:52,3,3.042
1949891,01/04/2021 16:09:52,3,3.0528
1949894,01/04/2021 16:10:52,3,2.994
1949899,01/04/2021 16:12:52,3,2.888
1949902,01/04/2021 16:13:52,3,2.884
1949905,01/04/2021 16:14:52,3,2.8652
1949908,01/04/2021 16:15:52,3,2.8236
1949911,01/04/2021 16:16:52,3,2.8068
1949914,01/04/2021 16:17:52,3,2.8308
1949919,01/04/2021 16:19:52,3,2.9536
1949922,01/04/2021 16:20:53,3,2.9892
1949925,01/04/2021 16:21:52,3,3.0228
1949928,01/04/2021 16:22:52,3,3.0488
1949931,01/04/2021 16:23:52,3,3.008
1949934,01/04/2021 16:24:52,3,2.9156
1949939,01/04/2021 16:26:52,3,2.8352
1949942,01/04/2021 16:27:53,3,2.802
1949945,01/04/2021 16:28:52,3,2.7792
1949948,01/04/2021 16:29:52,3,2.7932
1949951,01/04/2021 16:30:52,3,2.8292
1949954,01/04/2021 16:31:52,3,2.8512
1949959,01/04/2021 16:33:52,3,2.7532
1949962,01/04/2021 16:34:53,3,2.712
1949965,01/04/2021 16:35:52,3,2.6588
1949968,01/04/2021 16:36:52,3,2.6356
1949971,01/04/2021 16:37:52,3,2.6056
1949974,01/04/2021 16:38:52,3,2.604
1949979,01/04/2021 16:40:52,3,2.6428
1949982,01/04/2021 16:41:52,3,2.6316
1949985,01/04/2021 16:42:52,3,2.6064
1949988,01/04/2021 16:43:52,3,2.582
1949991,01/04/2021 16:44:52,3,2.5552
1949994,01/04/2021 16:45:53,3,2.514
1949999,01/04/2021 16:47:52,3,2.5096
1950002,01/04/2021 16:48:52,3,2.5036
1950005,01/04/2021 16:49:52,3,2.5368
1950008,01/04/2021 16:50:52,3,2.51
1950011,01/04/2021 16:51:52,2,2.4584
1950014,01/04/2021 16:52:52,2,2.4548
1950019,01/04/2021 16:54:52,2,2.374
1950022,01/04/2021 16:55:52,2,2.342
1950025,01/04/2021 16:56:52,2,2.2248
1950028,01/04/2021 16:57:52,2,2.1684
1950031,01/04/2021 16:58:52,2,2.084
1950034,01/04/2021 16:59:52,2,1.5192
1950039,01/04/2021 17:01:52,1,1.006
1950042,01/04/2021 17:02:52,1,0.9572
1950045,01/04/2021 17:03:53,1,0.9388
1950048,01/04/2021 17:04:52,1,0.9424
1950051,01/04/2021 17:05:52,1,0.8628
1950054,01/04/2021 17:06:52,1,0.834
1950059,01/04/2021 17:08:52,1,0.7728
1950062,01/04/2021 17:09:52,1,0.7436
1950065,01/04/2021 17:10:52,1,0.7268
1950068,01/04/2021 17:11:52,1,0.7172
1950071,01/04/2021 17:12:53,1,0.708
1950074,01/04/2021 17:13:52,1,0.6964
1950079,01/04/2021 17:15:52,1,0.676
1950082,01/04/2021 17:16:52,1,0.6604
1950085,01/04/2021 17:17:52,1,0.6432
1950088,01/04/2021 17:18:52,1,0.6224
1950091,01/04/2021 17:19:53,1,0.5992
1950094,01/04/2021 17:20:52,1,0.5756
1950097,01/04/2021 17:21:53,1,0.5524
1950100,01/04/2021 17:22:52,1,0.5312
1950103,01/04/2021 17:23:52,1,0.514
1950106,01/04/2021 17:24:52,0,0.4984
1950109,01/04/2021 17:25:52,0,0.484
1950112,01/04/2021 17:26:53,0,0.4728
1950115,01/04/2021 17:27:52,0,0.4684
1950118,01/04/2021 17:28:52,0,0.4672
1950121,01/04/2021 17:29:52,0,0.4596
1950124,01/04/2021 17:30:53,0,0.45
1950127,01/04/2021 17:31:52,0,0.4404
1950130,01/04/2021 17:32:52,0,0.434
1950133,01/04/2021 17:33:53,0,0.428
1950136,01/04/2021 17:34:52,0,0.4236
1950139,01/04/2021 17:35:52,0,0.4208
1950142,01/04/2021 17:36:52,0,0.4172
1950145,01/04/2021 17:37:52,0,0.4148
1950148,01/04/2021 17:38:52,0,0.4124
1950151,01/04/2021 17:39:53,0,0.4092
1950154,01/04/2021 17:40:52,0,0.408